| time (UTC) | temp F | wind direction | speed MPH | gust MPH | rain 1hr in | rain 24hr in | rain mn in | humidity % | barometer mb |
| 20260507210521 | 56 | 301 | 5.0 | 13.0 | 0.00 | 0.17 | 0.00 | 42 | 1007.4 |
| 20260507205517 | 55 | 259 | 10.0 | 14.0 | 0.00 | 0.18 | 0.00 | 42 | 1007.3 |
| 20260507204533 | 55 | 251 | 8.0 | 15.0 | 0.00 | 0.18 | 0.00 | 42 | 1007.4 |
| 20260507203529 | 55 | 279 | 10.0 | 16.0 | 0.00 | 0.18 | 0.00 | 43 | 1007.2 |
| 20260507202605 | 56 | 276 | 6.0 | 11.0 | 0.00 | 0.18 | 0.00 | 43 | 1007.3 |
| 20260507201521 | 57 | 266 | 7.0 | 16.0 | 0.00 | 0.18 | 0.00 | 43 | 1007.4 |
| 20260507200517 | 55 | 289 | 8.0 | 18.0 | 0.00 | 0.19 | 0.00 | 45 | 1007.4 |
| 20260507195533 | 55 | 290 | 8.0 | 13.0 | 0.00 | 0.19 | 0.00 | 44 | 1007.7 |
| 20260507194550 | 55 | 290 | 5.0 | 10.0 | 0.00 | 0.20 | 0.00 | 45 | 1007.8 |
| 20260507193525 | 55 | 276 | 6.0 | 15.0 | 0.00 | 0.23 | 0.00 | 45 | 1007.7 |
| 20260507192521 | 56 | 277 | 10.0 | 18.0 | 0.00 | 0.24 | 0.00 | 44 | 1007.8 |
| 20260507191518 | 55 | 248 | 6.0 | 9.0 | 0.00 | 0.26 | 0.00 | 45 | 1008.0 |
| 20260507190534 | 55 | 268 | 6.0 | 10.0 | 0.00 | 0.29 | 0.00 | 46 | 1008.1 |
| 20260507185531 | 55 | 266 | 9.0 | 16.0 | 0.00 | 0.32 | 0.00 | 46 | 1008.2 |
| 20260507184526 | 54 | 290 | 9.0 | 15.0 | 0.00 | 0.36 | 0.00 | 45 | 1008.3 |
| 20260507183523 | 54 | 304 | 8.0 | 16.0 | 0.00 | 0.39 | 0.00 | 45 | 1008.5 |
| 20260507182519 | 56 | 307 | 9.0 | 17.0 | 0.00 | 0.41 | 0.00 | 44 | 1008.5 |
| 20260507181535 | 55 | 275 | 8.0 | 14.0 | 0.00 | 0.44 | 0.00 | 45 | 1008.5 |
| 20260507180530 | 55 | 311 | 6.0 | 14.0 | 0.00 | 0.49 | 0.00 | 46 | 1008.5 |
| 20260507175526 | 55 | 265 | 8.0 | 16.0 | 0.00 | 0.53 | 0.00 | 47 | 1008.5 |
| 20260507174542 | 54 | 299 | 7.0 | 14.0 | 0.00 | 0.56 | 0.00 | 46 | 1008.6 |
| 20260507173518 | 56 | 284 | 6.0 | 11.0 | 0.00 | 0.63 | 0.00 | 46 | 1008.5 |
| 20260507172533 | 54 | 273 | 8.0 | 13.0 | 0.00 | 0.69 | 0.00 | 47 | 1008.6 |
| 20260507171549 | 55 | 275 | 7.0 | 11.0 | 0.00 | 0.71 | 0.00 | 46 | 1008.6 |
| 20260507170525 | 54 | 282 | 9.0 | 19.0 | 0.00 | 0.74 | 0.00 | 46 | 1008.7 |
| 20260507165520 | 55 | 284 | 10.0 | 21.0 | 0.00 | 0.76 | 0.00 | 45 | 1008.9 |
| 20260507164517 | 54 | 332 | 6.0 | 13.0 | 0.00 | 0.78 | 0.00 | 46 | 1008.9 |
| 20260507163533 | 54 | 276 | 8.0 | 15.0 | 0.00 | 0.81 | 0.00 | 45 | 1009.2 |
| 20260507162529 | 54 | 287 | 8.0 | 15.0 | 0.00 | 0.84 | 0.00 | 47 | 1009.6 |
| 20260507161525 | 53 | 287 | 8.0 | 18.0 | 0.00 | 0.86 | 0.00 | 46 | 1009.7 |
| 20260507160522 | 52 | 293 | 7.0 | 14.0 | 0.00 | 0.90 | 0.00 | 49 | 1009.6 |
| 20260507155518 | 51 | 335 | 5.0 | 13.0 | 0.00 | 0.92 | 0.00 | 50 | 1009.8 |
| 20260507154534 | 51 | 336 | 5.0 | 9.0 | 0.00 | 0.95 | 0.00 | 52 | 1009.9 |
| 20260507153529 | 52 | 287 | 5.0 | 15.0 | 0.00 | 1.01 | 0.00 | 50 | 1010.1 |
| 20260507152526 | 52 | 307 | 2.0 | 7.0 | 0.00 | 1.05 | 0.00 | 56 | 1010.2 |
| 20260507151522 | 51 | 242 | 3.0 | 6.0 | 0.00 | 1.08 | 0.00 | 52 | 1010.3 |
| 20260507150519 | 50 | 270 | 6.0 | 13.0 | 0.00 | 1.12 | 0.00 | 55 | 1010.2 |
| 20260507145535 | 51 | 279 | 4.0 | 9.0 | 0.00 | 1.15 | 0.00 | 55 | 1010.3 |
| 20260507144551 | 50 | 13 | 5.0 | 15.0 | 0.00 | 1.18 | 0.00 | 56 | 1010.4 |
| 20260507143527 | 50 | 330 | 5.0 | 10.0 | 0.00 | 1.23 | 0.00 | 55 | 1010.2 |
| 20260507142544 | 49 | 271 | 6.0 | 13.0 | 0.00 | 1.26 | 0.00 | 56 | 1010.4 |
| 20260507141520 | 49 | 332 | 9.0 | 16.0 | 0.00 | 1.30 | 0.00 | 59 | 1010.5 |
| 20260507140536 | 49 | 303 | 5.0 | 9.0 | 0.00 | 1.32 | 0.00 | 63 | 1010.6 |
| 20260507135532 | 49 | 299 | 6.0 | 10.0 | 0.00 | 1.34 | 0.00 | 65 | 1010.5 |
| 20260507134528 | 48 | 280 | 6.0 | 11.0 | 0.00 | 1.36 | 0.00 | 67 | 1010.4 |
| 20260507133523 | 49 | 209 | 2.0 | 8.0 | 0.00 | 1.38 | 0.00 | 69 | 1010.4 |
| 20260507132539 | 48 | 31 | 3.0 | 6.0 | 0.00 | 1.40 | 0.00 | 72 | 1010.6 |
| 20260507131516 | 47 | 215 | 4.0 | 9.0 | 0.00 | 1.42 | 0.00 | 72 | 1010.5 |
| 20260507130532 | 47 | 259 | 4.0 | 7.0 | 0.00 | 1.44 | 0.00 | 74 | 1010.6 |
| 20260507125528 | 47 | 259 | 6.0 | 10.0 | 0.00 | 1.46 | 0.00 | 77 | 1010.4 |
| 20260507124544 | 47 | 305 | 4.0 | 8.0 | 0.00 | 1.48 | 0.00 | 75 | 1010.4 |
| 20260507123540 | 46 | 279 | 7.0 | 10.0 | 0.00 | 1.49 | 0.00 | 73 | 1010.5 |
| 20260507122516 | 47 | 257 | 5.0 | 8.0 | 0.00 | 1.51 | 0.00 | 76 | 1010.4 |
| 20260507121531 | 46 | 275 | 7.0 | 10.0 | 0.00 | 1.52 | 0.00 | 79 | 1010.3 |
| 20260507120547 | 46 | 275 | 7.0 | 10.0 | 0.00 | 1.52 | 0.00 | 79 | 1010.3 |
| 20260507115524 | 46 | 283 | 8.0 | 14.0 | 0.00 | 1.52 | 0.00 | 80 | 1009.9 |
| 20260507114520 | 45 | 275 | 7.0 | 11.0 | 0.00 | 1.52 | 0.00 | 87 | 1009.9 |
| 20260507113536 | 44 | 239 | 3.0 | 7.0 | 0.00 | 1.52 | 0.00 | 99 | 1009.7 |
| 20260507112531 | 43 | 253 | 2.0 | 4.0 | 0.00 | 1.52 | 0.00 | 99 | 1009.7 |
| 20260507111527 | 43 | 250 | 3.0 | 4.0 | 0.00 | 1.52 | 0.00 | 99 | 1009.6 |
| 20260507110523 | 43 | 239 | 1.0 | 6.0 | 0.00 | 1.52 | 0.00 | 99 | 1009.6 |
| 20260507105520 | 43 | 258 | 0.0 | 1.0 | 0.00 | 1.53 | 0.00 | 99 | 1009.5 |
| 20260507104515 | 42 | 237 | 1.0 | 4.0 | 0.00 | 1.53 | 0.00 | 99 | 1009.3 |
| 20260507103532 | 43 | 256 | 4.0 | 9.0 | 0.00 | 1.53 | 0.00 | 99 | 1009.2 |
| 20260507102527 | 44 | 0.0 | 0.0 | 0.00 | 1.53 | 0.00 | 99 | 1009.2 | |
| 20260507101523 | 44 | 0.0 | 0.0 | 0.00 | 1.53 | 0.00 | 99 | 1009.1 | |
| 20260507100519 | 44 | 0.0 | 0.0 | 0.00 | 1.53 | 0.00 | 99 | 1009.0 | |
| 20260507095535 | 44 | 0.0 | 0.0 | 0.00 | 1.53 | 0.00 | 99 | 1008.9 | |
| 20260507094531 | 44 | 0.0 | 0.0 | 0.00 | 1.53 | 0.00 | 99 | 1008.8 | |
| 20260507093527 | 43 | 0.0 | 0.0 | 0.00 | 1.53 | 0.00 | 99 | 1008.7 | |
| 20260507092522 | 43 | 0.0 | 0.0 | 0.00 | 1.53 | 0.00 | 99 | 1008.9 | |
| 20260507091539 | 43 | 0.0 | 0.0 | 0.00 | 1.53 | 0.00 | 99 | 1009.0 | |
| 20260507090535 | 44 | 0.0 | 0.0 | 0.00 | 1.53 | 0.00 | 99 | 1008.9 | |
| 20260507085611 | 43 | 0.0 | 0.0 | 0.00 | 1.53 | 0.00 | 99 | 1009.1 | |
| 20260507084527 | 43 | 0.0 | 0.0 | 0.00 | 1.53 | 0.00 | 99 | 1009.0 | |
| 20260507083523 | 44 | 0.0 | 0.0 | 0.00 | 1.53 | 0.00 | 99 | 1009.2 | |
| 20260507082539 | 44 | 0.0 | 0.0 | 0.00 | 1.53 | 0.00 | 99 | 1009.5 | |
| 20260507081516 | 44 | 0.0 | 0.0 | 0.00 | 1.53 | 0.00 | 99 | 1009.1 | |
| 20260507080532 | 44 | 0.0 | 0.0 | 0.00 | 1.53 | 0.00 | 99 | 1009.1 | |
| 20260507075528 | 44 | 0.0 | 0.0 | 0.00 | 1.53 | 0.00 | 99 | 1009.4 | |
| 20260507074524 | 44 | 0.0 | 0.0 | 0.00 | 1.53 | 0.00 | 99 | 1009.4 | |
| 20260507073600 | 43 | 0.0 | 0.0 | 0.00 | 1.53 | 0.00 | 99 | 1009.4 | |
| 20260507072516 | 43 | 0.0 | 0.0 | 0.00 | 1.53 | 0.00 | 99 | 1009.3 | |
| 20260507071531 | 43 | 0.0 | 0.0 | 0.00 | 1.53 | 0.00 | 99 | 1009.1 | |
| 20260507070528 | 43 | 0.0 | 0.0 | 0.00 | 1.53 | 0.00 | 99 | 1008.8 | |
| 20260507064520 | 43 | 0.0 | 0.0 | 0.00 | 1.53 | 0.00 | 99 | 1008.9 | |
| 20260507063517 | 43 | 0.0 | 0.0 | 0.00 | 1.53 | 0.00 | 99 | 1008.9 | |
| 20260507062613 | 43 | 0.0 | 0.0 | 0.00 | 1.53 | 0.00 | 99 | 1008.9 | |
| 20260507061529 | 43 | 0.0 | 0.0 | 0.00 | 1.53 | 0.00 | 99 | 1008.9 | |
| 20260507060525 | 43 | 0.0 | 0.0 | 0.00 | 1.53 | 0.00 | 99 | 1009.0 | |
| 20260507055522 | 43 | 0.0 | 0.0 | 0.00 | 1.53 | 0.00 | 99 | 1008.9 | |
| 20260507054518 | 43 | 0.0 | 0.0 | 0.00 | 1.53 | 0.00 | 99 | 1008.9 | |
| 20260507053535 | 43 | 0.0 | 0.0 | 0.00 | 1.53 | 0.00 | 99 | 1009.0 | |
| 20260507052531 | 43 | 0.0 | 0.0 | 0.00 | 1.53 | 0.00 | 99 | 1009.2 | |
| 20260507051527 | 43 | 0.0 | 0.0 | 0.00 | 1.53 | 0.00 | 99 | 1009.4 | |
| 20260507050524 | 43 | 0.0 | 0.0 | 0.00 | 1.53 | 0.00 | 99 | 1009.7 | |
| 20260507045524 | 43 | 0.0 | 0.0 | 0.00 | 1.53 | 0.00 | 99 | 1009.8 | |
| 20260507044520 | 43 | 0.0 | 0.0 | 0.00 | 1.53 | 0.00 | 99 | 1009.4 | |
| 20260507043516 | 43 | 0.0 | 0.0 | 0.00 | 1.53 | 0.00 | 99 | 1009.4 | |
| 20260507042533 | 43 | 0.0 | 0.0 | 0.00 | 1.53 | 0.00 | 99 | 1009.6 | |
| 20260507041528 | 43 | 0.0 | 0.0 | 0.00 | 1.54 | 0.00 | 99 | 1009.5 | |
| 20260507040525 | 43 | 0.0 | 0.0 | 0.00 | 1.55 | 0.00 | 99 | 1009.3 | |
| 20260507035521 | 43 | 0.0 | 0.0 | 0.00 | 1.56 | 1.55 | 99 | 1008.8 | |
| 20260507034517 | 43 | 0.0 | 0.0 | 0.00 | 1.56 | 1.55 | 99 | 1009.4 | |
| 20260507033533 | 43 | 0.0 | 0.0 | 0.00 | 1.56 | 1.55 | 99 | 1009.4 | |
| 20260507032529 | 44 | 0.0 | 0.0 | 0.00 | 1.56 | 1.55 | 99 | 1009.4 | |
| 20260507031525 | 44 | 0.0 | 0.0 | 0.00 | 1.56 | 1.55 | 99 | 1009.4 | |
| 20260507030541 | 44 | 0.0 | 0.0 | 0.00 | 1.56 | 1.55 | 99 | 1010.0 | |
| 20260507025517 | 44 | 0.0 | 0.0 | 0.00 | 1.56 | 1.55 | 99 | 1009.8 | |
| 20260507024553 | 44 | 0.0 | 0.0 | 0.01 | 1.56 | 1.55 | 99 | 1009.9 | |
| 20260507023529 | 44 | 0.0 | 0.0 | 0.01 | 1.56 | 1.55 | 99 | 1009.9 | |
| 20260507022524 | 44 | 0.0 | 0.0 | 0.02 | 1.56 | 1.55 | 99 | 1010.0 | |
| 20260507021520 | 44 | 0.0 | 0.0 | 0.02 | 1.56 | 1.55 | 99 | 1009.9 | |
| 20260507020536 | 44 | 0.0 | 0.0 | 0.03 | 1.56 | 1.55 | 99 | 1009.8 | |
| 20260507015532 | 44 | 0.0 | 0.0 | 0.03 | 1.56 | 1.55 | 99 | 1010.0 | |
| 20260507014529 | 44 | 0.0 | 0.0 | 0.03 | 1.55 | 1.54 | 99 | 1009.9 | |
| 20260507013544 | 44 | 0.0 | 0.0 | 0.04 | 1.55 | 1.54 | 99 | 1010.0 | |
| 20260507012540 | 44 | 0.0 | 0.0 | 0.03 | 1.54 | 1.53 | 99 | 1009.8 | |
| 20260507011516 | 44 | 0.0 | 0.0 | 0.03 | 1.54 | 1.53 | 99 | 1009.7 | |
| 20260507010533 | 44 | 0.0 | 0.0 | 0.02 | 1.53 | 1.52 | 99 | 1009.7 | |
| 20260507005529 | 44 | 0.0 | 0.0 | 0.03 | 1.53 | 1.52 | 99 | 1009.6 | |
| 20260507004526 | 44 | 69 | 2.0 | 2.0 | 0.04 | 1.52 | 1.51 | 99 | 1009.6 |
| 20260507003522 | 43 | 57 | 2.0 | 3.0 | 0.05 | 1.51 | 1.50 | 99 | 1009.4 |
| 20260507002518 | 43 | 28 | 2.0 | 6.0 | 0.06 | 1.51 | 1.50 | 99 | 1009.3 |
| 20260507001535 | 44 | 13 | 1.0 | 2.0 | 0.06 | 1.51 | 1.50 | 99 | 1009.0 |
| 20260507000531 | 43 | 33 | 3.0 | 4.0 | 0.07 | 1.51 | 1.50 | 99 | 1008.8 |
| 20260506235528 | 43 | 51 | 3.0 | 4.0 | 0.06 | 1.50 | 1.49 | 99 | 1008.6 |
| 20260506234524 | 43 | 50 | 2.0 | 4.0 | 0.04 | 1.48 | 1.47 | 99 | 1008.4 |
| 20260506233520 | 43 | 57 | 2.0 | 4.0 | 0.03 | 1.46 | 1.45 | 99 | 1008.5 |
| 20260506232516 | 43 | 23 | 3.0 | 4.0 | 0.03 | 1.45 | 1.44 | 99 | 1008.4 |
| 20260506231611 | 43 | 42 | 4.0 | 8.0 | 0.03 | 1.45 | 1.44 | 99 | 1008.0 |
| 20260506230527 | 43 | 31 | 3.0 | 7.0 | 0.03 | 1.44 | 1.43 | 99 | 1007.9 |
| 20260506225523 | 43 | 17 | 2.0 | 6.0 | 0.03 | 1.44 | 1.43 | 99 | 1007.9 |
| 20260506224520 | 43 | 15 | 3.0 | 6.0 | 0.03 | 1.44 | 1.43 | 99 | 1007.7 |
| 20260506223516 | 43 | 33 | 5.0 | 11.0 | 0.02 | 1.43 | 1.42 | 99 | 1007.6 |
| 20260506222553 | 44 | 1 | 3.0 | 6.0 | 0.02 | 1.42 | 1.41 | 99 | 1007.7 |
| 20260506221528 | 44 | 29 | 2.0 | 4.0 | 0.03 | 1.42 | 1.41 | 99 | 1007.4 |
| 20260506220523 | 44 | 27 | 3.0 | 8.0 | 0.02 | 1.41 | 1.40 | 99 | 1007.2 |
| 20260506215520 | 44 | 22 | 3.0 | 9.0 | 0.03 | 1.41 | 1.40 | 99 | 1007.0 |
| 20260506214516 | 44 | 36 | 4.0 | 6.0 | 0.03 | 1.41 | 1.40 | 99 | 1006.8 |
| 20260506213553 | 45 | 35 | 2.0 | 4.0 | 0.03 | 1.41 | 1.40 | 99 | 1006.7 |
| 20260506212528 | 45 | 35 | 4.0 | 8.0 | 0.02 | 1.40 | 1.39 | 99 | 1006.7 |
| 20260506211524 | 44 | 23 | 4.0 | 8.0 | 0.01 | 1.39 | 1.38 | 99 | 1006.8 |